ALK110 EHAM-EDDN

Flight info

Callsign ALK110
Flight time N/A
Altitude 35000
Route EDUPO Z739 MISGO DCT TIVUN DCT TESGA Z719 ETOLU Z723 RITUP/N0389F230 Z723 KOMIB T193 ERTES T194 DODAS DODAS1T
Aircraft A21N/M-SDE3FGHIRWY/LB1

Departure

Time 2026-04-29 15:44
Airport Amsterdam Airport Schiphol (EHAM)

Arrival

Time N/A
Airport Nuremberg Airport (EDDN)
Time Latitude Longitude Altitude Speed Heading
2026-04-29 14:41 52.31363 4.75795 -1 ft 0 kts 266°
2026-04-29 15:11 52.31363 4.75802 -1 ft 2 kts 266°
2026-04-29 15:12 52.31364 4.75826 -1 ft 2 kts 266°
2026-04-29 15:12 52.31364 4.75842 -1 ft 2 kts 266°
2026-04-29 15:12 52.31364 4.75875 -1 ft 2 kts 286°
2026-04-29 15:12 52.31359 4.75898 -1 ft 2 kts 303°
2026-04-29 15:13 52.31349 4.75916 -1 ft 2 kts 323°
2026-04-29 15:13 52.31336 4.75928 -1 ft 2 kts 342°
2026-04-29 15:13 52.31325 4.75932 -1 ft 0 kts 355°
2026-04-29 15:13 52.31319 4.75933 -1 ft 0 kts 357°
2026-04-29 15:19 52.31323 4.75932 -1 ft 2 kts 356°
2026-04-29 15:19 52.31350 4.75929 -1 ft 5 kts 356°
2026-04-29 15:19 52.31399 4.75921 -1 ft 8 kts 346°
2026-04-29 15:20 52.31440 4.75838 -1 ft 11 kts 282°
2026-04-29 15:20 52.31441 4.75727 -1 ft 3 kts 264°
2026-04-29 15:20 52.31439 4.75702 -1 ft 0 kts 265°
2026-04-29 15:20 52.31439 4.75696 -1 ft 0 kts 265°
2026-04-29 15:21 52.31439 4.75695 -1 ft 0 kts 265°
2026-04-29 15:24 52.31439 4.75694 -1 ft 0 kts 264°
2026-04-29 15:28 52.31434 4.75615 -1 ft 13 kts 265°
2026-04-29 15:28 52.31449 4.75456 -1 ft 14 kts 324°
2026-04-29 15:29 52.31505 4.75322 -1 ft 15 kts 277°
2026-04-29 15:29 52.31497 4.75005 -1 ft 4 kts 268°
2026-04-29 15:30 52.31495 4.74931 -1 ft 1 kts 267°
2026-04-29 15:30 52.31494 4.74910 -1 ft 2 kts 267°
2026-04-29 15:30 52.31491 4.74848 -1 ft 7 kts 266°
2026-04-29 15:30 52.31487 4.74749 -1 ft 9 kts 266°
2026-04-29 15:31 52.31485 4.74681 -1 ft 6 kts 267°
2026-04-29 15:31 52.31482 4.74607 -1 ft 6 kts 267°
2026-04-29 15:31 52.31482 4.74524 -1 ft 7 kts 272°
2026-04-29 15:31 52.31481 4.74435 -1 ft 8 kts 269°
2026-04-29 15:32 52.31480 4.74364 -1 ft 8 kts 268°
2026-04-29 15:32 52.31484 4.74234 -1 ft 9 kts 289°
2026-04-29 15:32 52.31531 4.74159 -1 ft 10 kts 350°
2026-04-29 15:32 52.31603 4.74158 -1 ft 10 kts
2026-04-29 15:33 52.31677 4.74164 -1 ft 11 kts
2026-04-29 15:33 52.31754 4.74173 -1 ft 11 kts
2026-04-29 15:33 52.31833 4.74184 -1 ft 11 kts
2026-04-29 15:33 52.31913 4.74191 -1 ft 11 kts
2026-04-29 15:34 52.31955 4.74186 -1 ft 4 kts 349°
2026-04-29 15:34 52.31987 4.74166 -1 ft 5 kts 328°
2026-04-29 15:34 52.32016 4.74132 -1 ft 5 kts 312°
2026-04-29 15:34 52.32034 4.74076 -1 ft 6 kts 287°
2026-04-29 15:35 52.32040 4.74002 -1 ft 7 kts 275°
2026-04-29 15:35 52.32044 4.73907 -1 ft 9 kts 274°
2026-04-29 15:35 52.32049 4.73764 -1 ft 25 kts 273°
2026-04-29 15:35 52.32057 4.73555 -1 ft 9 kts 274°
2026-04-29 15:36 52.32062 4.73448 -1 ft 9 kts 281°
2026-04-29 15:36 52.32097 4.73348 -1 ft 10 kts 314°
2026-04-29 15:36 52.32151 4.73266 -1 ft 11 kts 319°
2026-04-29 15:36 52.32218 4.73172 -1 ft 13 kts 319°
2026-04-29 15:37 52.32293 4.73067 -1 ft 15 kts 319°
2026-04-29 15:37 52.32366 4.72967 -1 ft 7 kts 319°
2026-04-29 15:37 52.32410 4.72899 -1 ft 9 kts 318°
2026-04-29 15:37 52.32465 4.72818 -1 ft 11 kts 318°
2026-04-29 15:38 52.32531 4.72722 -1 ft 13 kts 319°
2026-04-29 15:38 52.32608 4.72614 -1 ft 15 kts 320°
2026-04-29 15:38 52.32692 4.72494 -1 ft 16 kts 314°
2026-04-29 15:38 52.32774 4.72349 -1 ft 18 kts 313°
2026-04-29 15:39 52.32835 4.72169 -1 ft 19 kts 274°
2026-04-29 15:39 52.32858 4.71955 -1 ft 19 kts 306°
2026-04-29 15:39 52.32940 4.71769 -1 ft 20 kts 306°
2026-04-29 15:39 52.33039 4.71590 -1 ft 21 kts 314°
2026-04-29 15:40 52.33104 4.71455 -1 ft 3 kts 228°
2026-04-29 15:40 52.33024 4.71337 -1 ft 28 kts 221°
2026-04-29 15:40 52.32880 4.71124 -1 ft 26 kts 239°
2026-04-29 15:40 52.32905 4.70893 -1 ft 18 kts 354°
2026-04-29 15:41 52.32930 4.70891 -1 ft 0 kts
2026-04-29 15:41 52.32930 4.70892 -1 ft 0 kts
2026-04-29 15:41 52.32930 4.70891 -1 ft 0 kts
2026-04-29 15:42 52.32930 4.70892 -1 ft 0 kts
2026-04-29 15:42 52.32930 4.70891 -1 ft 0 kts
2026-04-29 15:43 52.32933 4.70892 -1 ft 3 kts
2026-04-29 15:43 52.33234 4.70927 -1 ft 82 kts
2026-04-29 15:44 52.34049 4.70991 -1 ft 149 kts
2026-04-29 15:44 52.35226 4.71125 226 ft 182 kts
2026-04-29 15:44 52.36552 4.71270 789 ft 200 kts
2026-04-29 15:44 52.37974 4.71393 1574 ft 210 kts
2026-04-29 15:45 52.39405 4.71511 2524 ft 208 kts
2026-04-29 15:45 52.40828 4.71641 3355 ft 209 kts
2026-04-29 15:45 52.42239 4.72134 4153 ft 212 kts 19°
2026-04-29 15:45 52.43607 4.73145 4789 ft 224 kts 25°
2026-04-29 15:46 52.45022 4.74414 5276 ft 242 kts 27°
2026-04-29 15:46 52.46516 4.75833 5871 ft 256 kts 32°
2026-04-29 15:46 52.47747 4.78019 6607 ft 270 kts 58°
2026-04-29 15:46 52.48291 4.80994 7266 ft 285 kts 80°
2026-04-29 15:47 52.48471 4.84291 7963 ft 293 kts 83°
2026-04-29 15:47 52.48598 4.87629 8680 ft 299 kts 87°
2026-04-29 15:47 52.48275 4.91026 9366 ft 306 kts 115°
2026-04-29 15:47 52.47033 4.93795 10099 ft 304 kts 143°
2026-04-29 15:48 52.45334 4.95809 10879 ft 304 kts 150°
2026-04-29 15:48 52.43535 4.97745 11290 ft 320 kts 150°
2026-04-29 15:48 52.41634 4.99816 11611 ft 338 kts 149°
2026-04-29 15:48 52.39650 5.02047 11949 ft 354 kts 148°
2026-04-29 15:49 52.37597 5.04397 12238 ft 371 kts 148°
2026-04-29 15:49 52.35434 5.06946 12518 ft 388 kts 146°
2026-04-29 15:49 52.33320 5.09821 12780 ft 405 kts 141°
2026-04-29 15:49 52.31278 5.13119 13029 ft 421 kts 136°
2026-04-29 15:50 52.29308 5.16677 13356 ft 432 kts 134°
2026-04-29 15:50 52.27295 5.20386 13908 ft 436 kts 135°
2026-04-29 15:50 52.25307 5.24108 14465 ft 441 kts 133°
2026-04-29 15:50 52.23396 5.28041 14982 ft 447 kts 130°
2026-04-29 15:51 52.21566 5.32203 15488 ft 452 kts 128°
2026-04-29 15:51 52.19743 5.36414 15980 ft 456 kts 129°
2026-04-29 15:51 52.17879 5.40466 16448 ft 459 kts 131°
2026-04-29 15:51 52.15869 5.44584 16922 ft 463 kts 133°
2026-04-29 15:52 52.13879 5.48605 17371 ft 467 kts 133°
2026-04-29 15:52 52.11819 5.52772 17822 ft 471 kts 133°
2026-04-29 15:52 52.09790 5.56888 18252 ft 475 kts 133°
2026-04-29 15:52 52.07718 5.61102 18677 ft 479 kts 133°
2026-04-29 15:53 52.05669 5.65273 19083 ft 482 kts 134°